Back to catalog

NOAA 16 DEB

AliveSSO
NORAD 41069·DEBRIS·🇺🇸 United States

Launched Sep 21, 2000 from Vandenberg Space Force Base

Loading…

Next Passes (next 24 hours)

TLE

FreshSource: Space-Track

Epoch: Sep 14, 2026, 14:17 UTC

1 41069U 00055AC  26257.59573080  .00001224  00000-0  35278-3 0  9996
2 41069  98.6088  11.3491 0106311 269.8006  89.1001 14.43374995565524

Track NOAA 16 DEB in real time with AllMySat

Download on the App Store